Weather History for Akron, OH

Change the Weather History Date:

Wednesday, November 21, 2012

  Actual Average (KCAK) Record (KCAK)
Temperature  
Mean Temperature 44 °F 40 °F  
Max Temperature 57 °F 47 °F 73 °F (1906)
Min Temperature 30 °F 32 °F 13 °F (1964)
Degree Days  
Heating Degree Days 22 25  
Month to date heating degree days 456  
Since 1 July heating degree days 1011  
Cooling Degree Days 0 0  
Month to date cooling degree days 0  
Year to date cooling degree days 652  
Moisture  
Dew Point 30 °F    
Average Humidity 69    
Maximum Humidity 92    
Minimum Humidity 28    
Precipitation  
Precipitation 0.00 in 0.12 in 0.68 in (1952)
Month to date precipitation 2.31  
Year to date precipitation 35.79  
Snow  
Snow 0.00 in 0.10 in - ()
Month to date snowfall 1.6  
Since 1 July snowfall 2.0  
Since 1 September snowfall 2.0  
Snow Depth -    
Sea Level Pressure  
Sea Level Pressure 30.21 in    
Wind  
Wind Speed 0 mph (West)    
Max Wind Speed 4 mph    
Max Gust Speed -    
Visibility 8 miles    
Events      
T = Trace of Precipitation, MM = Missing Value Source: NWS Daily Summary

Daily Weather History Graph

Daily Weather History Graph

Search for Another Location

Airport:

Trip Planner

Search our weather history database for the weather conditions in past years. The results will help you decide how hot, cold, wet, or windy it might be!

Date:

Astronomy

Nov. 21, 2012 Rise Set
Actual Time 7:21 AM EST 5:02 PM EST
Civil Twilight 6:51 AM EST 5:32 PM EST
Nautical Twilight 6:17 AM EST 6:06 PM EST
Astronomical Twilight 5:44 AM EST 6:38 PM EST
Moon 1:21 PM EST (11/21) 12:35 AM EST (11/21)
Length of Visible Light 10h 41m
Length of Day
9h 41m
First Quarter, 61% of the Moon is Illuminated
Nov 21
First Quarter
Nov 28
Full
Dec 6
Last Quarter
Dec 13
New
Dec 20
First Quarter

Hourly Weather History & Observations

Time (EST) Temp. Dew Point Humidity Pressure Visibility Wind Dir Wind Speed Gust Speed Precip Events Conditions
12:54 AM 33.1 °F 28.9 °F 85% 30.15 in 6.0 mi Calm Calm - N/A   Clear
1:54 AM 35.1 °F 30.0 °F 82% 30.15 in 7.0 mi Calm Calm - N/A   Clear
2:54 AM 30.9 °F 28.9 °F 92% 30.17 in 5.0 mi Calm Calm - N/A   Clear
3:54 AM 35.1 °F 32.0 °F 89% 30.17 in 7.0 mi Calm Calm - N/A   Overcast
4:54 AM 36.0 °F 33.1 °F 89% 30.18 in 6.0 mi Calm Calm - N/A   Overcast
5:54 AM 33.1 °F 30.0 °F 89% 30.20 in 5.0 mi Calm Calm - N/A   Partly Cloudy
6:54 AM 32.0 °F 30.0 °F 92% 30.22 in 5.0 mi Calm Calm - N/A   Clear
7:54 AM 30.0 °F 27.0 °F 88% 30.23 in 5.0 mi Calm Calm - N/A   Clear
8:54 AM 37.9 °F 34.0 °F 86% 30.25 in 4.0 mi Calm Calm - N/A   Clear
9:54 AM 46.9 °F 36.0 °F 66% 30.24 in 8.0 mi Calm Calm - N/A   Clear
10:54 AM 52.0 °F 34.0 °F 50% 30.24 in 10.0 mi Calm Calm - N/A   Clear
11:54 AM 55.9 °F 30.0 °F 37% 30.23 in 10.0 mi Calm Calm - N/A   Clear
12:54 PM 57.0 °F 28.9 °F 34% 30.21 in 10.0 mi Calm Calm - N/A   Clear
1:54 PM 57.9 °F 25.0 °F 28% 30.20 in 10.0 mi West 3.5 mph - N/A   Clear
2:54 PM 57.9 °F 27.0 °F 31% 30.20 in 10.0 mi Calm Calm - N/A   Clear
3:54 PM 57.9 °F 28.9 °F 33% 30.20 in 10.0 mi Calm Calm - N/A   Clear
4:54 PM 50.0 °F 33.1 °F 52% 30.21 in 7.0 mi Calm Calm - N/A   Clear
5:54 PM 43.0 °F 30.9 °F 62% 30.22 in 10.0 mi Calm Calm - N/A   Clear
6:54 PM 41.0 °F 32.0 °F 70% 30.22 in 8.0 mi Calm Calm - N/A   Clear
7:54 PM 37.9 °F 30.0 °F 73% 30.23 in 10.0 mi Calm Calm - N/A   Clear
8:54 PM 36.0 °F 28.9 °F 76% 30.23 in 10.0 mi Calm Calm - N/A   Clear
9:54 PM 35.1 °F 30.9 °F 85% 30.22 in 10.0 mi Calm Calm - N/A   Clear
10:54 PM 33.1 °F 30.0 °F 89% 30.22 in 7.0 mi Calm Calm - N/A   Clear
11:54 PM 32.0 °F 28.0 °F 85% 30.23 in 6.0 mi Calm Calm - N/A   Clear